Regional Weather Roundup
Issued by NWS

Home | Current Version | Previous Version | Graphics & Text | Print | Product List | Glossary Off
Versions: 1 2 3 4 5 6 7 8 9 10 11 12 13 14 15 16 17 18 19 20 21 22 23 24 25 26 27 28 29 30 31 32 33 34 35 36 37 38 39 40 41 42 43 44 45 46 47 48 49 50

000
ASUS43 KLSX 220507
RWRMO

WEATHER SUMMARY FOR MISSOURI
NATIONAL WEATHER SERVICE SPRINGFIELD MO
1200 AM CDT FRI SEP 22 2017

NOTE: "FAIR" INDICATES FEW OR NO CLOUDS BELOW 12,000 FEET WITH NO
       SIGNIFICANT WEATHER AND/OR OBSTRUCTIONS TO VISIBILITY.
       CURRENT SKY AND/OR WEATHER CONDITIONS ARE NOT AVAILABLE FOR
       CHILLICOTHE AND FARMINGTON.

MOZ001>031-035>038-043-044-053-054-220600-
...NORTHERN AND WESTERN MISSOURI...

CITY           SKY/WX    TMP DP  RH WIND       PRES   REMARKS
KANSAS CTY INT CLEAR     80  71  74 S16       29.90R
KANSAS C DTWN  CLEAR     84  72  67 S10G18    29.90R
LEE`S SUMMIT   CLEAR     80  71  74 S13       29.92S
ST JOSEPH      CLEAR     81  73  76 S10       29.88R
CHILLICOTHE      N/A     79  70  74 S6        29.94R
KIRKSVILLE     CLEAR     72  69  90 S7        29.96S

$$
MOZ066>068-077>081-088>096-101>105-220600-
...SOUTHWEST MISSOURI...

CITY           SKY/WX    TMP DP  RH WIND       PRES   REMARKS
SPRINGFIELD    CLEAR     77  68  73 S12       29.99R
JOPLIN         CLEAR     77  71  82 SE9       29.96R
BRANSON        CLEAR     75  68  78 CALM      30.02S

$$
MOZ032>034-039>042-045>050-055>058-069>072-220600-
...CENTRAL MISSOURI...

CITY           SKY/WX    TMP DP  RH WIND       PRES   REMARKS
COLUMBIA       CLEAR     76  69  79 SE7       29.98R
JEFFERSON CITY CLEAR     78  67  68 SE6       29.97R
ROLLA          CLEAR     76  68  76 S8        30.02R
SEDALIA        CLEAR     78  70  76 S9        29.97R
WHITEMAN AFB   CLEAR     74  74 100 S9        29.94R
WARRENSBURG    CLEAR     73  68  83 SE9       29.94R
OSAGE BEACH    CLEAR     75  68  78 S5        29.99S

$$
MOZ051-052-059>065-220600-
...EAST CENTRAL MISSOURI...

CITY           SKY/WX    TMP DP  RH WIND       PRES   REMARKS
ST LOUIS INTL  PTCLDY    81  70  69 SE7       30.02R
SPIRIT OF STL  CLEAR     80  70  71 S5        30.00R
ST CHARLES     CLOUDY    73  69  87 E7        30.00R

$$
MOZ072>076-082>087-097>100-106>115-220600-
...SOUTH CENTRAL AND SOUTHEAST MISSOURI...

CITY           SKY/WX    TMP DP  RH WIND       PRES   REMARKS
CAPE GIRARDEAU CLEAR     72  66  81 E6        30.02S
FARMINGTON     CLEAR     72  68  87 CALM      30.05S
POPLAR BLUFF   CLEAR     71  70  96 CALM      30.01S
WEST PLAINS    CLEAR     75  69  81 S3        30.04S

$$



USA.gov is the U.S. government's official web portal to all federal, state and local government web resources and services.